Location: Lone Pine Community Mobile Home Park
(42.7367°N, 73.8567°W)
Time: 05:07:26
(UTC+00:00)

NOAA 11 - Pass Details

Date: 29 October 2020
Orbit: 833 x 850 km, 98.4° (Epoch: 27 November)

Event Time Altitude Azimuth Distance (km) Brightness Sun altitude
Rises 22:23:00 0° 154° (SSE) 3,381 7.2 -6.4°
Reaches altitude 10° 22:25:22 10° 150° (SSE) 2,448 6.4 -6.9°
Maximum altitude 22:30:42 59° 72° (ENE) 961 4.2 -7.8°
Drops below altitude 10° 22:36:02 10° 354° (N) 2,455 6.6 -8.8°
Sets 22:38:25 0° 351° (N) 3,392 7.3 -9.2°
